Tracking 29892 objects as of 21-Nov-2024
HD Live streaming from Space Station
objects crossing your sky now

CZ-4B R/B

Track CZ-4B R/B now!
10-day predictions


NORAD ID: 61938
Int'l Code: 2024-208C
Perigee: 418.1 km
Apogee: 640.8 km
Inclination: 98.0 °
Period: 95.1 minutes
Semi major axis: 6900 km
RCS: Unknown
Launch date: November 13, 2024
Source: People's Republic of China (PRC)
Launch site: Taiyaun Space Center, China (TSC)

Note: This is a ROCKET BODY
Your satellite tracking list
Your tracking list is empty




NASA's NSSDC Master Catalog

Two Line Element Set (TLE):
1 61938U 24208C   24325.92794444  .00015837  00000-0  62086-3 0  9991
2 61938  98.0004 330.8933 0161401 348.1038  11.6397 15.14552966  1067
Source of the keplerian elements: AFSPC